Year,Month,Day,Hour,Minute,Value (Times are PST for temperature in C)
2015,11,18,00,00,6.00
2015,11,18,00,01,6.00
2015,11,18,00,02,5.90
2015,11,18,00,03,5.90
2015,11,18,00,04,5.90
2015,11,18,00,05,5.90
2015,11,18,00,06,5.90
2015,11,18,00,07,5.90
2015,11,18,00,08,5.80
2015,11,18,00,09,5.80
2015,11,18,00,10,5.80
2015,11,18,00,11,5.80
2015,11,18,00,12,5.80
2015,11,18,00,13,5.90
2015,11,18,00,14,5.90
2015,11,18,00,15,5.90
2015,11,18,00,16,5.90
2015,11,18,00,17,5.90
2015,11,18,00,18,5.90
2015,11,18,00,19,5.80
2015,11,18,00,20,5.80
2015,11,18,00,21,5.80
2015,11,18,00,22,5.70
2015,11,18,00,23,5.70
2015,11,18,00,24,5.70
2015,11,18,00,25,5.60
2015,11,18,00,26,5.60
2015,11,18,00,27,5.60
2015,11,18,00,28,5.60
2015,11,18,00,29,5.60
2015,11,18,00,30,5.60
2015,11,18,00,31,5.70
2015,11,18,00,32,5.70
2015,11,18,00,33,5.80
2015,11,18,00,34,5.80
2015,11,18,00,35,5.80
2015,11,18,00,36,5.90
2015,11,18,00,37,5.90
2015,11,18,00,38,5.90
2015,11,18,00,39,5.90
2015,11,18,00,40,5.90
2015,11,18,00,41,5.90
2015,11,18,00,42,5.90
2015,11,18,00,43,5.90
2015,11,18,00,44,6.00
2015,11,18,00,45,6.00
2015,11,18,00,46,6.00
2015,11,18,00,47,6.00
2015,11,18,00,48,6.00
2015,11,18,00,49,6.00
2015,11,18,00,50,6.00
2015,11,18,00,51,6.00
2015,11,18,00,52,6.00
2015,11,18,00,53,6.00
2015,11,18,00,54,6.00
2015,11,18,00,55,6.00
2015,11,18,00,56,5.90
2015,11,18,00,57,5.90
2015,11,18,00,58,5.90
2015,11,18,00,59,5.90
2015,11,18,01,00,5.90
2015,11,18,01,01,5.90
2015,11,18,01,02,5.90
2015,11,18,01,03,6.00
2015,11,18,01,04,6.00
2015,11,18,01,05,6.00
2015,11,18,01,06,6.00
2015,11,18,01,07,6.00
2015,11,18,01,08,5.90
2015,11,18,01,09,5.90
2015,11,18,01,10,5.90
2015,11,18,01,11,5.90
2015,11,18,01,12,5.90
2015,11,18,01,13,5.80
2015,11,18,01,14,5.80
2015,11,18,01,15,5.70
2015,11,18,01,16,5.60
2015,11,18,01,17,5.50
2015,11,18,01,18,5.50
2015,11,18,01,19,5.40
2015,11,18,01,20,5.30
2015,11,18,01,21,5.20
2015,11,18,01,22,5.20
2015,11,18,01,23,5.10
2015,11,18,01,24,5.10
2015,11,18,01,25,5.10
2015,11,18,01,26,5.10
2015,11,18,01,27,5.10
2015,11,18,01,28,5.00
2015,11,18,01,29,5.00
2015,11,18,01,30,4.90
2015,11,18,01,31,4.80
2015,11,18,01,32,4.70
2015,11,18,01,33,4.60
2015,11,18,01,34,4.60
2015,11,18,01,35,4.60
2015,11,18,01,36,4.60
2015,11,18,01,37,4.60
2015,11,18,01,38,4.60
2015,11,18,01,39,4.50
2015,11,18,01,40,4.50
2015,11,18,01,41,4.50
2015,11,18,01,42,4.50
2015,11,18,01,43,4.50
2015,11,18,01,44,4.50
2015,11,18,01,45,4.40
2015,11,18,01,46,4.40
2015,11,18,01,47,4.40
2015,11,18,01,48,4.40
2015,11,18,01,49,4.40
2015,11,18,01,50,4.40
2015,11,18,01,51,4.40
2015,11,18,01,52,4.40
2015,11,18,01,53,4.40
2015,11,18,01,54,4.30
2015,11,18,01,55,4.30
2015,11,18,01,56,4.30
2015,11,18,01,57,4.20
2015,11,18,01,58,4.20
2015,11,18,01,59,4.20
2015,11,18,02,00,4.20
2015,11,18,02,01,4.20
2015,11,18,02,02,4.20
2015,11,18,02,03,4.20
2015,11,18,02,04,4.20
2015,11,18,02,05,4.10
2015,11,18,02,06,4.10
2015,11,18,02,07,4.10
2015,11,18,02,08,4.10
2015,11,18,02,09,4.20
2015,11,18,02,10,4.20
2015,11,18,02,11,4.10
2015,11,18,02,12,4.10
2015,11,18,02,13,4.10
2015,11,18,02,14,4.10
2015,11,18,02,15,4.00
2015,11,18,02,16,4.00
2015,11,18,02,17,3.90
2015,11,18,02,18,3.80
2015,11,18,02,19,3.70
2015,11,18,02,20,3.60
2015,11,18,02,21,3.50
2015,11,18,02,22,3.40
2015,11,18,02,23,3.30
2015,11,18,02,24,3.30
2015,11,18,02,25,3.20
2015,11,18,02,26,3.30
2015,11,18,02,27,3.40
2015,11,18,02,28,3.50
2015,11,18,02,29,3.50
2015,11,18,02,30,3.60
2015,11,18,02,31,3.60
2015,11,18,02,32,3.60
2015,11,18,02,33,3.60
2015,11,18,02,34,3.60
2015,11,18,02,35,3.70
2015,11,18,02,36,3.70
2015,11,18,02,37,3.70
2015,11,18,02,38,3.70
2015,11,18,02,39,3.70
2015,11,18,02,40,3.70
2015,11,18,02,41,3.70
2015,11,18,02,42,3.70
2015,11,18,02,43,3.80
2015,11,18,02,44,3.80
2015,11,18,02,45,3.80
2015,11,18,02,46,3.80
2015,11,18,02,47,3.80
2015,11,18,02,48,3.80
2015,11,18,02,49,3.80
2015,11,18,02,50,3.80
2015,11,18,02,51,3.70
2015,11,18,02,52,3.70
2015,11,18,02,53,3.70
2015,11,18,02,54,3.70
2015,11,18,02,55,3.70
2015,11,18,02,56,3.70
2015,11,18,02,57,3.70
2015,11,18,02,58,3.70
2015,11,18,02,59,3.70
2015,11,18,03,00,3.80
2015,11,18,03,01,3.80
2015,11,18,03,02,3.80
2015,11,18,03,03,3.80
2015,11,18,03,04,3.80
2015,11,18,03,05,3.90
2015,11,18,03,06,3.90
2015,11,18,03,07,3.90
2015,11,18,03,08,3.90
2015,11,18,03,09,4.00
2015,11,18,03,10,4.00
2015,11,18,03,11,4.00
2015,11,18,03,12,4.00
2015,11,18,03,13,4.00
2015,11,18,03,14,4.00
2015,11,18,03,15,4.00
2015,11,18,03,16,4.00
2015,11,18,03,17,4.00
2015,11,18,03,18,4.00
2015,11,18,03,19,4.00
2015,11,18,03,20,3.90
2015,11,18,03,21,3.90
2015,11,18,03,22,3.90
2015,11,18,03,23,3.90
2015,11,18,03,24,3.90
2015,11,18,03,25,3.90
2015,11,18,03,26,3.90
2015,11,18,03,27,3.90
2015,11,18,03,28,3.90
2015,11,18,03,29,3.90
2015,11,18,03,30,3.90
2015,11,18,03,31,3.90
2015,11,18,03,32,3.80
2015,11,18,03,33,3.70
2015,11,18,03,34,3.70
2015,11,18,03,35,3.80
2015,11,18,03,36,3.80
2015,11,18,03,37,3.80
2015,11,18,03,38,3.90
2015,11,18,03,39,3.90
2015,11,18,03,40,3.80
2015,11,18,03,41,3.80
2015,11,18,03,42,3.80
2015,11,18,03,43,3.80
2015,11,18,03,44,3.80
2015,11,18,03,45,3.80
2015,11,18,03,46,3.80
2015,11,18,03,47,3.80
2015,11,18,03,48,3.70
2015,11,18,03,49,3.60
2015,11,18,03,50,3.50
2015,11,18,03,51,3.40
2015,11,18,03,52,3.40
2015,11,18,03,53,3.30
2015,11,18,03,54,3.30
2015,11,18,03,55,3.20
2015,11,18,03,56,3.20
2015,11,18,03,57,3.10
2015,11,18,03,58,3.00
2015,11,18,03,59,2.90
2015,11,18,04,00,2.80
2015,11,18,04,01,2.70
2015,11,18,04,02,2.60
2015,11,18,04,03,2.50
2015,11,18,04,04,2.30
2015,11,18,04,05,2.30
2015,11,18,04,06,2.20
2015,11,18,04,07,2.10
2015,11,18,04,08,2.00
2015,11,18,04,09,2.00
2015,11,18,04,10,1.90
2015,11,18,04,11,1.90
2015,11,18,04,12,1.90
2015,11,18,04,13,1.90
2015,11,18,04,14,1.90
2015,11,18,04,15,1.90
2015,11,18,04,16,1.90
2015,11,18,04,17,1.90
2015,11,18,04,18,1.80
2015,11,18,04,19,1.80
2015,11,18,04,20,1.80
2015,11,18,04,21,1.80
2015,11,18,04,22,1.80
2015,11,18,04,23,1.80
2015,11,18,04,24,1.70
2015,11,18,04,25,1.70
2015,11,18,04,26,1.60
2015,11,18,04,27,1.60
2015,11,18,04,28,1.60
2015,11,18,04,29,1.60
2015,11,18,04,30,1.60
2015,11,18,04,31,1.60
2015,11,18,04,32,1.60
2015,11,18,04,33,1.60
2015,11,18,04,34,1.60
2015,11,18,04,35,1.60
2015,11,18,04,36,1.60
2015,11,18,04,37,1.60
2015,11,18,04,38,1.60
2015,11,18,04,39,1.50
2015,11,18,04,40,1.50
2015,11,18,04,41,1.40
2015,11,18,04,42,1.40
2015,11,18,04,43,1.40
2015,11,18,04,44,1.30
2015,11,18,04,45,1.30
2015,11,18,04,46,1.30
2015,11,18,04,47,1.30
2015,11,18,04,48,1.30
2015,11,18,04,49,1.30
2015,11,18,04,50,1.30
2015,11,18,04,51,1.30
2015,11,18,04,52,1.30
2015,11,18,04,53,1.30
2015,11,18,04,54,1.30
2015,11,18,04,55,1.30
2015,11,18,04,56,1.30
2015,11,18,04,57,1.30
2015,11,18,04,58,1.30
2015,11,18,04,59,1.30
2015,11,18,05,00,1.40
2015,11,18,05,01,1.40
2015,11,18,05,02,1.30
2015,11,18,05,03,1.30
2015,11,18,05,04,1.30
2015,11,18,05,05,1.30
2015,11,18,05,06,1.30
2015,11,18,05,07,1.30
2015,11,18,05,08,1.30
2015,11,18,05,09,1.30
2015,11,18,05,10,1.30
2015,11,18,05,11,1.30
2015,11,18,05,12,1.30
2015,11,18,05,13,1.30
2015,11,18,05,14,1.30
2015,11,18,05,15,1.30
2015,11,18,05,16,1.30
2015,11,18,05,17,1.30
2015,11,18,05,18,1.30
2015,11,18,05,19,1.40
2015,11,18,05,20,1.40
2015,11,18,05,21,1.40
2015,11,18,05,22,1.30
2015,11,18,05,23,1.30
2015,11,18,05,24,1.30
2015,11,18,05,25,1.30
2015,11,18,05,26,1.30
2015,11,18,05,27,1.30
2015,11,18,05,28,1.30
2015,11,18,05,29,1.30
2015,11,18,05,30,1.30
2015,11,18,05,31,1.30
2015,11,18,05,32,1.30
2015,11,18,05,33,1.20
2015,11,18,05,34,1.10
2015,11,18,05,35,1.10
2015,11,18,05,36,1.00
2015,11,18,05,37,1.00
2015,11,18,05,38,0.90
2015,11,18,05,39,0.90
2015,11,18,05,40,1.00
2015,11,18,05,41,1.10
2015,11,18,05,42,1.10
2015,11,18,05,43,1.00
2015,11,18,05,44,1.00
2015,11,18,05,45,0.90
2015,11,18,05,46,0.80
2015,11,18,05,47,0.80
2015,11,18,05,48,0.80
2015,11,18,05,49,0.80
2015,11,18,05,50,0.80
2015,11,18,05,51,0.80
2015,11,18,05,52,0.80
2015,11,18,05,53,0.70
2015,11,18,05,54,0.70
2015,11,18,05,55,0.60
2015,11,18,05,56,0.50
2015,11,18,05,57,0.50
2015,11,18,05,58,0.50
2015,11,18,05,59,0.40
2015,11,18,06,00,0.40
2015,11,18,06,01,0.40
2015,11,18,06,02,0.40
2015,11,18,06,03,0.40
2015,11,18,06,04,0.40
2015,11,18,06,05,0.50
2015,11,18,06,06,0.50
2015,11,18,06,07,0.50
2015,11,18,06,08,0.50
2015,11,18,06,09,0.60
2015,11,18,06,10,0.60
2015,11,18,06,11,0.60
2015,11,18,06,12,0.70
2015,11,18,06,13,0.70
2015,11,18,06,14,0.70
2015,11,18,06,15,0.70
2015,11,18,06,16,0.70
2015,11,18,06,17,0.70
2015,11,18,06,18,0.70
2015,11,18,06,19,0.70
2015,11,18,06,20,0.70
2015,11,18,06,21,0.70
2015,11,18,06,22,0.70
2015,11,18,06,23,0.70
2015,11,18,06,24,0.70
2015,11,18,06,25,0.60
2015,11,18,06,26,0.60
2015,11,18,06,27,0.60
2015,11,18,06,28,0.60
2015,11,18,06,29,0.60
2015,11,18,06,30,0.60
2015,11,18,06,31,0.60
2015,11,18,06,32,0.50
2015,11,18,06,33,0.50
2015,11,18,06,34,0.40
2015,11,18,06,35,0.40
2015,11,18,06,36,0.30
2015,11,18,06,37,0.30
2015,11,18,06,38,0.30
2015,11,18,06,39,0.30
2015,11,18,06,40,0.30
2015,11,18,06,41,0.30
2015,11,18,06,42,0.30
2015,11,18,06,43,0.30
2015,11,18,06,44,0.30
2015,11,18,06,45,0.30
2015,11,18,06,46,0.30
2015,11,18,06,47,0.30
2015,11,18,06,48,0.30
2015,11,18,06,49,0.30
2015,11,18,06,50,0.30
2015,11,18,06,51,0.30
2015,11,18,06,52,0.30
2015,11,18,06,53,0.30
2015,11,18,06,54,0.30
2015,11,18,06,55,0.30
2015,11,18,06,56,0.20
2015,11,18,06,57,0.20
2015,11,18,06,58,0.20
2015,11,18,06,59,0.10
2015,11,18,07,00,0.10
2015,11,18,07,01,0.20
2015,11,18,07,02,0.20
2015,11,18,07,03,0.20
2015,11,18,07,04,0.20
2015,11,18,07,05,0.20
2015,11,18,07,06,0.20
2015,11,18,07,07,0.10
2015,11,18,07,08,0.10
2015,11,18,07,09,0.10
2015,11,18,07,10,0.10
2015,11,18,07,11,0.10
2015,11,18,07,12,0.10
2015,11,18,07,13,0.20
2015,11,18,07,14,0.40
2015,11,18,07,15,0.60
2015,11,18,07,16,0.70
2015,11,18,07,17,0.80
2015,11,18,07,18,1.00
2015,11,18,07,19,1.10
2015,11,18,07,20,1.30
2015,11,18,07,21,1.30
2015,11,18,07,22,1.20
2015,11,18,07,23,1.20
2015,11,18,07,24,1.30
2015,11,18,07,25,1.40
2015,11,18,07,26,1.80
2015,11,18,07,27,2.00
2015,11,18,07,28,2.10
2015,11,18,07,29,2.20
2015,11,18,07,30,2.10
2015,11,18,07,31,2.00
2015,11,18,07,32,1.90
2015,11,18,07,33,1.90
2015,11,18,07,34,1.90
2015,11,18,07,35,1.80
2015,11,18,07,36,1.70
2015,11,18,07,37,1.60
2015,11,18,07,38,1.50
2015,11,18,07,39,1.40
2015,11,18,07,40,1.40
2015,11,18,07,41,1.50
2015,11,18,07,42,1.40
2015,11,18,07,43,1.30
2015,11,18,07,44,1.30
2015,11,18,07,45,1.30
2015,11,18,07,46,1.30
2015,11,18,07,47,1.30
2015,11,18,07,48,1.30
2015,11,18,07,49,1.30
2015,11,18,07,50,1.20
2015,11,18,07,51,1.10
2015,11,18,07,52,1.10
2015,11,18,07,53,1.10
2015,11,18,07,54,1.20
2015,11,18,07,55,1.20
2015,11,18,07,56,1.30
2015,11,18,07,57,1.30
2015,11,18,07,58,1.30
2015,11,18,07,59,1.30
2015,11,18,08,00,1.30
2015,11,18,08,01,1.30
2015,11,18,08,02,1.30
2015,11,18,08,03,1.30
2015,11,18,08,04,1.30
2015,11,18,08,05,1.30
2015,11,18,08,06,1.30
2015,11,18,08,07,1.30
2015,11,18,08,08,1.30
2015,11,18,08,09,1.30
2015,11,18,08,10,1.30
2015,11,18,08,11,1.30
2015,11,18,08,12,1.30
2015,11,18,08,13,1.30
2015,11,18,08,14,1.30
2015,11,18,08,15,1.30
2015,11,18,08,16,1.20
2015,11,18,08,17,1.20
2015,11,18,08,18,1.10
2015,11,18,08,19,1.10
2015,11,18,08,20,1.10
2015,11,18,08,21,1.10
2015,11,18,08,22,1.20
2015,11,18,08,23,1.20
2015,11,18,08,24,1.20
2015,11,18,08,25,1.30
2015,11,18,08,26,1.30
2015,11,18,08,27,1.30
2015,11,18,08,28,1.30
2015,11,18,08,29,1.30
2015,11,18,08,30,1.30
2015,11,18,08,31,1.30
2015,11,18,08,32,1.30
2015,11,18,08,33,1.30
2015,11,18,08,34,1.30
2015,11,18,08,35,1.30
2015,11,18,08,36,1.30
2015,11,18,08,37,1.30
2015,11,18,08,38,1.30
2015,11,18,08,39,1.40
2015,11,18,08,40,1.50
2015,11,18,08,41,1.50
2015,11,18,08,42,1.60
2015,11,18,08,43,1.60
2015,11,18,08,44,1.70
2015,11,18,08,45,1.70
2015,11,18,08,46,1.70
2015,11,18,08,47,1.70
2015,11,18,08,48,1.70
2015,11,18,08,49,1.70
2015,11,18,08,50,1.70
2015,11,18,08,51,1.80
2015,11,18,08,52,1.80
2015,11,18,08,53,1.90
2015,11,18,08,54,1.90
2015,11,18,08,55,1.90
2015,11,18,08,56,2.00
2015,11,18,08,57,2.00
2015,11,18,08,58,2.10
2015,11,18,08,59,2.10
2015,11,18,09,00,2.20
2015,11,18,09,01,2.30
2015,11,18,09,02,2.40
2015,11,18,09,03,2.50
2015,11,18,09,04,2.60
2015,11,18,09,05,2.60
2015,11,18,09,06,2.70
2015,11,18,09,07,2.80
2015,11,18,09,08,2.80
2015,11,18,09,09,2.80
2015,11,18,09,10,2.90
2015,11,18,09,11,3.00
2015,11,18,09,12,3.00
2015,11,18,09,13,3.00
2015,11,18,09,14,2.90
2015,11,18,09,15,2.90
2015,11,18,09,16,2.90
2015,11,18,09,17,2.80
2015,11,18,09,18,2.70
2015,11,18,09,19,2.60
2015,11,18,09,20,2.60
2015,11,18,09,21,2.60
2015,11,18,09,22,2.60
2015,11,18,09,23,2.60
2015,11,18,09,24,2.60
2015,11,18,09,25,2.60
2015,11,18,09,26,2.60
2015,11,18,09,27,2.50
2015,11,18,09,28,2.50
2015,11,18,09,29,2.40
2015,11,18,09,30,2.40
2015,11,18,09,31,2.40
2015,11,18,09,32,2.40
2015,11,18,09,33,2.40
2015,11,18,09,34,2.40
2015,11,18,09,35,2.40
2015,11,18,09,36,2.50
2015,11,18,09,37,2.60
2015,11,18,09,38,2.60
2015,11,18,09,39,2.60
2015,11,18,09,40,2.70
2015,11,18,09,41,2.70
2015,11,18,09,42,2.80
2015,11,18,09,43,2.80
2015,11,18,09,44,2.80
2015,11,18,09,45,2.90
2015,11,18,09,46,2.90
2015,11,18,09,47,2.90
2015,11,18,09,48,3.00
2015,11,18,09,49,3.10
2015,11,18,09,50,3.10
2015,11,18,09,51,3.20
2015,11,18,09,52,3.20
2015,11,18,09,53,3.30
2015,11,18,09,54,3.30
2015,11,18,09,55,3.30
2015,11,18,09,56,3.30
2015,11,18,09,57,3.30
2015,11,18,09,58,3.30
2015,11,18,09,59,3.30
2015,11,18,10,00,3.30
2015,11,18,10,01,3.30
2015,11,18,10,02,3.30
2015,11,18,10,03,3.30
2015,11,18,10,04,3.30
2015,11,18,10,05,3.30
2015,11,18,10,06,3.30
2015,11,18,10,07,3.40
2015,11,18,10,08,3.40
2015,11,18,10,09,3.40
2015,11,18,10,10,3.50
2015,11,18,10,11,3.60
2015,11,18,10,12,3.60
2015,11,18,10,13,3.70
2015,11,18,10,14,3.80
2015,11,18,10,15,3.80
2015,11,18,10,16,3.80
2015,11,18,10,17,3.90
2015,11,18,10,18,3.90
2015,11,18,10,19,3.90
2015,11,18,10,20,3.90
2015,11,18,10,21,4.00
2015,11,18,10,22,4.00
2015,11,18,10,23,4.10
2015,11,18,10,24,4.10
2015,11,18,10,25,4.10
2015,11,18,10,26,4.20
2015,11,18,10,27,4.20
2015,11,18,10,28,4.30
2015,11,18,10,29,4.30
2015,11,18,10,30,4.40
2015,11,18,10,31,4.40
2015,11,18,10,32,4.50
2015,11,18,10,33,4.50
2015,11,18,10,34,4.60
2015,11,18,10,35,4.60
2015,11,18,10,36,4.70
2015,11,18,10,37,4.70
2015,11,18,10,38,4.70
2015,11,18,10,39,4.70
2015,11,18,10,40,4.80
2015,11,18,10,41,4.80
2015,11,18,10,42,4.80
2015,11,18,10,43,4.90
2015,11,18,10,44,4.90
2015,11,18,10,45,5.00
2015,11,18,10,46,5.00
2015,11,18,10,47,5.10
2015,11,18,10,48,5.10
2015,11,18,10,49,5.10
2015,11,18,10,50,5.20
2015,11,18,10,51,5.30
2015,11,18,10,52,5.40
2015,11,18,10,53,5.50
2015,11,18,10,54,5.60
2015,11,18,10,55,5.60
2015,11,18,10,56,5.70
2015,11,18,10,57,5.70
2015,11,18,10,58,5.80
2015,11,18,10,59,5.80
2015,11,18,11,00,5.80
2015,11,18,11,01,5.80
2015,11,18,11,02,5.80
2015,11,18,11,03,5.90
2015,11,18,11,04,5.90
2015,11,18,11,05,5.90
2015,11,18,11,06,6.00
2015,11,18,11,07,6.00
2015,11,18,11,08,6.10
2015,11,18,11,09,6.10
2015,11,18,11,10,6.10
2015,11,18,11,11,6.10
2015,11,18,11,12,6.20
2015,11,18,11,13,6.20
2015,11,18,11,14,6.20
2015,11,18,11,15,6.30
2015,11,18,11,16,6.30
2015,11,18,11,17,6.30
2015,11,18,11,18,6.30
2015,11,18,11,19,6.30
2015,11,18,11,20,6.30
2015,11,18,11,21,6.40
2015,11,18,11,22,6.40
2015,11,18,11,23,6.40
2015,11,18,11,24,6.40
2015,11,18,11,25,6.40
2015,11,18,11,26,6.40
2015,11,18,11,27,6.40
2015,11,18,11,28,6.50
2015,11,18,11,29,6.50
2015,11,18,11,30,6.50
2015,11,18,11,31,6.50
2015,11,18,11,32,6.60
2015,11,18,11,33,6.60
2015,11,18,11,34,6.60
2015,11,18,11,35,6.60
2015,11,18,11,36,6.60
2015,11,18,11,37,6.70
2015,11,18,11,38,6.70
2015,11,18,11,39,6.70
2015,11,18,11,40,6.70
2015,11,18,11,41,6.70
2015,11,18,11,42,6.70
2015,11,18,11,43,6.70
2015,11,18,11,44,6.80
2015,11,18,11,45,6.80
2015,11,18,11,46,6.80
2015,11,18,11,47,6.80
2015,11,18,11,48,6.80
2015,11,18,11,49,6.80
2015,11,18,11,50,6.90
2015,11,18,11,51,6.90
2015,11,18,11,52,6.90
2015,11,18,11,53,6.90
2015,11,18,11,54,6.90
2015,11,18,11,55,6.90
2015,11,18,11,56,6.90
2015,11,18,11,57,6.90
2015,11,18,11,58,6.90
2015,11,18,11,59,6.90
2015,11,18,12,00,6.80
2015,11,18,12,01,6.80
2015,11,18,12,02,6.80
2015,11,18,12,03,6.80
2015,11,18,12,04,6.80
2015,11,18,12,05,6.80
2015,11,18,12,06,6.90
2015,11,18,12,07,6.90
2015,11,18,12,08,6.90
2015,11,18,12,09,6.90
2015,11,18,12,10,6.90
2015,11,18,12,11,6.90
2015,11,18,12,12,6.90
2015,11,18,12,13,6.80
2015,11,18,12,14,6.80
2015,11,18,12,15,6.90
2015,11,18,12,16,6.90
2015,11,18,12,17,6.90
2015,11,18,12,18,6.90
2015,11,18,12,19,6.90
2015,11,18,12,20,6.90
2015,11,18,12,21,6.90
2015,11,18,12,22,6.90
2015,11,18,12,23,6.90
2015,11,18,12,24,6.90
2015,11,18,12,25,6.90
2015,11,18,12,26,7.00
2015,11,18,12,27,7.00
2015,11,18,12,28,7.00
2015,11,18,12,29,7.00
2015,11,18,12,30,6.90
2015,11,18,12,31,6.90
2015,11,18,12,32,6.90
2015,11,18,12,33,6.90
2015,11,18,12,34,6.90
2015,11,18,12,35,7.00
2015,11,18,12,36,7.00
2015,11,18,12,37,7.00
2015,11,18,12,38,7.10
2015,11,18,12,39,7.10
2015,11,18,12,40,7.10
2015,11,18,12,41,7.10
2015,11,18,12,42,7.10
2015,11,18,12,43,7.10
2015,11,18,12,44,7.10
2015,11,18,12,45,7.10
2015,11,18,12,46,7.10
2015,11,18,12,47,7.10
2015,11,18,12,48,7.20
2015,11,18,12,49,7.10
2015,11,18,12,50,7.10
2015,11,18,12,51,7.00
2015,11,18,12,52,7.00
2015,11,18,12,53,7.00
2015,11,18,12,54,7.00
2015,11,18,12,55,7.00
2015,11,18,12,56,7.00
2015,11,18,12,57,7.00
2015,11,18,12,58,7.00
2015,11,18,12,59,7.10
2015,11,18,13,00,7.00
2015,11,18,13,01,7.00
2015,11,18,13,02,7.00
2015,11,18,13,03,6.90
2015,11,18,13,04,6.90
2015,11,18,13,05,6.90
2015,11,18,13,06,6.90
2015,11,18,13,07,6.90
2015,11,18,13,08,6.90
2015,11,18,13,09,6.90
2015,11,18,13,10,6.80
2015,11,18,13,11,6.80
2015,11,18,13,12,6.80
2015,11,18,13,13,6.80
2015,11,18,13,14,6.80
2015,11,18,13,15,6.80
2015,11,18,13,16,6.90
2015,11,18,13,17,6.90
2015,11,18,13,18,6.90
2015,11,18,13,19,6.90
2015,11,18,13,20,7.00
2015,11,18,13,21,7.00
2015,11,18,13,22,7.00
2015,11,18,13,23,6.90
2015,11,18,13,24,6.90
2015,11,18,13,25,7.00
2015,11,18,13,26,7.00
2015,11,18,13,27,7.00
2015,11,18,13,28,7.10
2015,11,18,13,29,7.10
2015,11,18,13,30,7.10
2015,11,18,13,31,7.10
2015,11,18,13,32,7.10
2015,11,18,13,33,7.10
2015,11,18,13,34,7.10
2015,11,18,13,35,7.10
2015,11,18,13,36,7.10
2015,11,18,13,37,7.10
2015,11,18,13,38,7.10
2015,11,18,13,39,7.10
2015,11,18,13,40,7.00
2015,11,18,13,41,7.00
2015,11,18,13,42,7.00
2015,11,18,13,43,6.90
2015,11,18,13,44,6.90
2015,11,18,13,45,6.90
2015,11,18,13,46,6.90
2015,11,18,13,47,6.90
2015,11,18,13,48,6.90
2015,11,18,13,49,6.90
2015,11,18,13,50,6.90
2015,11,18,13,51,6.90
2015,11,18,13,52,6.90
2015,11,18,13,53,6.90
2015,11,18,13,54,6.90
2015,11,18,13,55,6.90
2015,11,18,13,56,6.90
2015,11,18,13,57,6.90
2015,11,18,13,58,6.90
2015,11,18,13,59,6.90
2015,11,18,14,00,6.90
2015,11,18,14,01,6.90
2015,11,18,14,02,6.90
2015,11,18,14,03,6.90
2015,11,18,14,04,6.90
2015,11,18,14,05,6.90
2015,11,18,14,06,6.90
2015,11,18,14,07,6.90
2015,11,18,14,08,6.90
2015,11,18,14,09,6.90
2015,11,18,14,10,6.90
2015,11,18,14,11,6.90
2015,11,18,14,12,6.90
2015,11,18,14,13,6.90
2015,11,18,14,14,6.90
2015,11,18,14,15,6.90
2015,11,18,14,16,6.90
2015,11,18,14,17,6.90
2015,11,18,14,18,6.90
2015,11,18,14,19,6.90
2015,11,18,14,20,6.90
2015,11,18,14,21,6.90
2015,11,18,14,22,6.90
2015,11,18,14,23,6.90
2015,11,18,14,24,6.90
2015,11,18,14,25,6.90
2015,11,18,14,26,6.80
2015,11,18,14,27,6.80
2015,11,18,14,28,6.80
2015,11,18,14,29,6.90
2015,11,18,14,30,6.90
2015,11,18,14,31,6.90
2015,11,18,14,32,6.90
2015,11,18,14,33,6.90
2015,11,18,14,34,6.90
2015,11,18,14,35,6.90
2015,11,18,14,36,6.90
2015,11,18,14,37,6.90
2015,11,18,14,38,6.90
2015,11,18,14,39,6.90
2015,11,18,14,40,6.90
2015,11,18,14,41,6.90
2015,11,18,14,42,6.90
2015,11,18,14,43,6.90
2015,11,18,14,44,6.90
2015,11,18,14,45,7.00
2015,11,18,14,46,6.90
2015,11,18,14,47,6.90
2015,11,18,14,48,6.90
2015,11,18,14,49,6.90
2015,11,18,14,50,6.90
2015,11,18,14,51,6.90
2015,11,18,14,52,6.90
2015,11,18,14,53,6.90
2015,11,18,14,54,6.90
2015,11,18,14,55,6.90
2015,11,18,14,56,6.90
2015,11,18,14,57,6.90
2015,11,18,14,58,6.90
2015,11,18,14,59,6.90
2015,11,18,15,00,7.00
2015,11,18,15,01,7.00
2015,11,18,15,02,7.00
2015,11,18,15,03,6.90
2015,11,18,15,04,6.90
2015,11,18,15,05,6.90
2015,11,18,15,06,6.90
2015,11,18,15,07,6.90
2015,11,18,15,08,6.90
2015,11,18,15,09,6.90
2015,11,18,15,10,6.90
2015,11,18,15,11,6.90
2015,11,18,15,12,6.90
2015,11,18,15,13,6.90
2015,11,18,15,14,6.90
2015,11,18,15,15,6.90
2015,11,18,15,16,6.90
2015,11,18,15,17,6.90
2015,11,18,15,18,6.90
2015,11,18,15,19,6.90
2015,11,18,15,20,6.90
2015,11,18,15,21,6.90
2015,11,18,15,22,6.80
2015,11,18,15,23,6.80
2015,11,18,15,24,6.80
2015,11,18,15,25,6.80
2015,11,18,15,26,6.80
2015,11,18,15,27,6.80
2015,11,18,15,28,6.80
2015,11,18,15,29,6.80
2015,11,18,15,30,6.80
2015,11,18,15,31,6.80
2015,11,18,15,32,6.80
2015,11,18,15,33,6.80
2015,11,18,15,34,6.80
2015,11,18,15,35,6.80
2015,11,18,15,36,6.80
2015,11,18,15,37,6.80
2015,11,18,15,38,6.80
2015,11,18,15,39,6.80
2015,11,18,15,40,6.80
2015,11,18,15,41,6.70
2015,11,18,15,42,6.70
2015,11,18,15,43,6.70
2015,11,18,15,44,6.70
2015,11,18,15,45,6.70
2015,11,18,15,46,6.70
2015,11,18,15,47,6.70
2015,11,18,15,48,6.70
2015,11,18,15,49,6.60
2015,11,18,15,50,6.60
2015,11,18,15,51,6.60
2015,11,18,15,52,6.60
2015,11,18,15,53,6.50
2015,11,18,15,54,6.50
2015,11,18,15,55,6.50
2015,11,18,15,56,6.40
2015,11,18,15,57,6.40
2015,11,18,15,58,6.40
2015,11,18,15,59,6.40
2015,11,18,16,00,6.30
2015,11,18,16,01,6.30
2015,11,18,16,02,6.30
2015,11,18,16,03,6.30
2015,11,18,16,04,6.20
2015,11,18,16,05,6.20
2015,11,18,16,06,6.20
2015,11,18,16,07,6.20
2015,11,18,16,08,6.20
2015,11,18,16,09,6.20
2015,11,18,16,10,6.10
2015,11,18,16,11,6.10
2015,11,18,16,12,6.10
2015,11,18,16,13,6.10
2015,11,18,16,14,6.10
2015,11,18,16,15,6.10
2015,11,18,16,16,6.10
2015,11,18,16,17,6.10
2015,11,18,16,18,6.00
2015,11,18,16,19,6.00
2015,11,18,16,20,6.00
2015,11,18,16,21,5.90
2015,11,18,16,22,5.90
2015,11,18,16,23,5.90
2015,11,18,16,24,5.90
2015,11,18,16,25,5.80
2015,11,18,16,26,5.80
2015,11,18,16,27,5.80
2015,11,18,16,28,5.80
2015,11,18,16,29,5.70
2015,11,18,16,30,5.70
2015,11,18,16,31,5.60
2015,11,18,16,32,5.60
2015,11,18,16,33,5.60
2015,11,18,16,34,5.50
2015,11,18,16,35,5.50
2015,11,18,16,36,5.40
2015,11,18,16,37,5.40
2015,11,18,16,38,5.30
2015,11,18,16,39,5.30
2015,11,18,16,40,5.30
2015,11,18,16,41,5.20
2015,11,18,16,42,5.20
2015,11,18,16,43,5.20
2015,11,18,16,44,5.20
2015,11,18,16,45,5.10
2015,11,18,16,46,5.10
2015,11,18,16,47,5.10
2015,11,18,16,48,5.10
2015,11,18,16,49,5.10
2015,11,18,16,50,5.10
2015,11,18,16,51,5.10
2015,11,18,16,52,5.10
2015,11,18,16,53,5.10
2015,11,18,16,54,5.10
2015,11,18,16,55,5.10
2015,11,18,16,56,5.10
2015,11,18,16,57,5.10
2015,11,18,16,58,5.10
2015,11,18,16,59,5.10
2015,11,18,17,00,5.10
2015,11,18,17,01,5.00
2015,11,18,17,02,5.00
2015,11,18,17,03,5.00
2015,11,18,17,04,4.90
2015,11,18,17,05,4.90
2015,11,18,17,06,4.80
2015,11,18,17,07,4.80
2015,11,18,17,08,4.80
2015,11,18,17,09,4.70
2015,11,18,17,10,4.70
2015,11,18,17,11,4.70
2015,11,18,17,12,4.70
2015,11,18,17,13,4.70
2015,11,18,17,14,4.70
2015,11,18,17,15,4.70
2015,11,18,17,16,4.60
2015,11,18,17,17,4.70
2015,11,18,17,18,4.70
2015,11,18,17,19,4.70
2015,11,18,17,20,4.70
2015,11,18,17,21,4.70
2015,11,18,17,22,4.60
2015,11,18,17,23,4.60
2015,11,18,17,24,4.60
2015,11,18,17,25,4.60
2015,11,18,17,26,4.60
2015,11,18,17,27,4.60
2015,11,18,17,28,4.60
2015,11,18,17,29,4.60
2015,11,18,17,30,4.60
2015,11,18,17,31,4.50
2015,11,18,17,32,4.50
2015,11,18,17,33,4.50
2015,11,18,17,34,4.40
2015,11,18,17,35,4.40
2015,11,18,17,36,4.40
2015,11,18,17,37,4.30
2015,11,18,17,38,4.30
2015,11,18,17,39,4.30
2015,11,18,17,40,4.20
2015,11,18,17,41,4.20
2015,11,18,17,42,4.20
2015,11,18,17,43,4.10
2015,11,18,17,44,4.10
2015,11,18,17,45,4.10
2015,11,18,17,46,4.00
2015,11,18,17,47,4.00
2015,11,18,17,48,3.90
2015,11,18,17,49,3.90
2015,11,18,17,50,3.90
2015,11,18,17,51,3.80
2015,11,18,17,52,3.80
2015,11,18,17,53,3.80
2015,11,18,17,54,3.80
2015,11,18,17,55,3.80
2015,11,18,17,56,3.80
2015,11,18,17,57,3.80
2015,11,18,17,58,3.80
2015,11,18,17,59,3.80
2015,11,18,18,00,3.80
2015,11,18,18,01,3.80
2015,11,18,18,02,3.80
2015,11,18,18,03,3.80
2015,11,18,18,04,3.70
2015,11,18,18,05,3.70
2015,11,18,18,06,3.70